contact:dominique.lefevre@mio.osupytheas.fr, maurice.libes@osupytheas.fr, didier.mallarino@osupytheas.fr
Project:EMSO http://www.emso-fr.org/EMSO-France
Depth: 2436.0 m
Title:EMSO Ligure Ouest : Data MII capteur AQUADOPP
Date,Latitude,Longitude,X_East,Y_North,Z_Up,Amplitude_X,Amplitude_Y,Amplitude_Z,Batterie,SoundSpeed,Heading,Pitch,Roll,Pressure,TIS,Speed,Direction
, degrees North, degrees East, m.s-1, m.s-1,m.s-1, 1, 1, 1, Volt, m.s-1, degree, degree, degree, dbar, degree_C, m.s-1, degree
2021-08-24T00:04:03,42.805,6.029,0.007,-0.011,-0.023,100.0,101.0,100.0,13.3,1505.2,327.0,-0.8,1.8,2470.446,13.28,0.013,147.5
2021-08-24T00:07:03,42.805,6.029,0.008,-0.003,0.016,100.0,102.0,100.0,13.4,1505.2,329.8,-0.8,1.8,2470.454,13.28,0.008,110.6
2021-08-24T00:10:03,42.805,6.029,0.012,0.001,0.025,100.0,103.0,100.0,13.4,1505.2,326.0,-0.8,1.8,2470.46,13.28,0.012,85.2
2021-08-24T00:13:03,42.805,6.029,-0.001,0.002,-0.028,101.0,101.0,100.0,13.3,1505.2,328.5,-0.8,1.8,2470.486,13.28,0.002,333.4
2021-08-24T00:16:03,42.805,6.029,0.007,0.015,-0.018,99.0,102.0,101.0,13.4,1505.2,325.2,-0.8,1.8,2470.455,13.28,0.016,25.0
2021-08-24T00:19:03,42.805,6.029,0.002,0.004,-0.019,98.0,103.0,101.0,13.3,1505.2,329.0,-0.7,1.8,2470.443,13.29,0.004,26.6
2021-08-24T00:22:03,42.805,6.029,0.0,0.005,-0.006,101.0,101.0,100.0,13.4,1505.2,325.8,-0.8,1.8,2470.417,13.29,0.005,0.0
2021-08-24T00:25:03,42.805,6.029,-0.016,0.016,-0.033,102.0,102.0,98.0,13.3,1505.2,328.9,-0.7,1.8,2470.448,13.29,0.022,315.0
2021-08-24T00:28:03,42.805,6.029,-0.039,0.01,-0.041,99.0,104.0,98.0,13.3,1505.2,325.7,-0.7,1.8,2470.419,13.29,0.04,284.4
2021-08-24T00:31:03,42.805,6.029,-0.029,0.015,0.008,101.0,101.0,100.0,13.3,1505.2,329.6,-0.8,1.8,2470.429,13.29,0.032,297.4
2021-08-24T00:34:03,42.805,6.029,0.004,0.008,-0.009,102.0,100.0,100.0,13.4,1505.2,326.9,-0.7,1.8,2470.43,13.29,0.008,26.6
2021-08-24T00:37:03,42.805,6.029,0.012,-0.011,-0.018,101.0,101.0,99.0,13.3,1505.2,331.0,-0.8,1.8,2470.445,13.29,0.016,132.5
2021-08-24T00:40:03,42.805,6.029,0.024,0.01,0.008,101.0,102.0,99.0,13.4,1505.2,326.1,-0.8,1.8,2470.418,13.29,0.026,67.4
2021-08-24T00:43:03,42.805,6.029,0.016,0.0,0.0,98.0,103.0,101.0,13.4,1505.2,328.3,-0.8,1.8,2470.382,13.28,0.016,90.0
2021-08-24T00:46:03,42.805,6.029,0.013,0.008,0.008,102.0,100.0,100.0,13.4,1505.2,328.5,-0.7,1.8,2470.384,13.28,0.015,58.4
2021-08-24T00:49:03,42.805,6.029,0.017,-0.005,-0.032,100.0,102.0,99.0,13.3,1505.2,327.8,-0.7,1.8,2470.363,13.28,0.017,106.4
2021-08-24T00:52:03,42.805,6.029,0.007,0.02,0.02,101.0,102.0,99.0,13.3,1505.2,330.2,-0.8,1.8,2470.381,13.28,0.021,19.3
2021-08-24T00:55:03,42.805,6.029,0.007,0.015,0.009,101.0,102.0,100.0,13.3,1505.2,327.2,-0.8,1.8,2470.356,13.28,0.016,25.0
2021-08-24T00:58:03,42.805,6.029,0.015,0.015,0.024,100.0,101.0,99.0,13.3,1505.2,329.1,-0.7,1.8,2470.371,13.28,0.021,45.0
2021-08-24T01:04:03,42.805,6.029,0.011,0.005,0.0,101.0,102.0,102.0,13.4,1505.2,327.0,-0.7,1.9,2470.423,13.28,0.012,65.6
2021-08-24T01:07:03,42.805,6.029,-0.012,-0.014,-0.036,100.0,102.0,100.0,13.3,1505.2,326.8,-0.7,1.8,2470.385,13.28,0.018,220.6
2021-08-24T01:10:03,42.805,6.029,0.011,0.007,-0.011,100.0,101.0,100.0,13.4,1505.2,327.1,-0.8,1.8,2470.409,13.28,0.013,57.5
2021-08-24T01:13:03,42.805,6.029,-0.013,0.016,-0.012,100.0,101.0,100.0,13.3,1505.2,330.3,-0.7,1.8,2470.395,13.28,0.02,320.9
2021-08-24T01:16:03,42.805,6.029,-0.008,0.005,0.001,100.0,101.0,100.0,13.3,1505.2,329.8,-0.8,1.8,2470.394,13.28,0.009,302.0
2021-08-24T01:19:03,42.805,6.029,-0.005,-0.011,-0.053,100.0,101.0,101.0,13.4,1505.2,326.5,-0.8,1.8,2470.385,13.28,0.012,204.4
2021-08-24T01:22:03,42.805,6.029,-0.008,0.0,-0.014,102.0,100.0,100.0,13.4,1505.2,327.0,-0.7,1.9,2470.383,13.28,0.008,270.0
2021-08-24T01:25:03,42.805,6.029,0.009,0.011,-0.009,102.0,103.0,98.0,13.4,1505.2,330.6,-0.8,1.8,2470.407,13.28,0.014,39.3
2021-08-24T01:28:03,42.805,6.029,0.0,0.005,-0.007,99.0,100.0,102.0,13.4,1505.2,326.9,-0.8,1.8,2470.384,13.28,0.005,0.0
2021-08-24T01:31:03,42.805,6.029,0.006,0.03,0.026,101.0,101.0,100.0,13.4,1505.2,328.4,-0.8,1.8,2470.399,13.28,0.03,11.3
2021-08-24T01:34:03,42.805,6.029,0.005,0.01,0.022,101.0,101.0,99.0,13.4,1505.2,327.5,-0.7,1.8,2470.394,13.28,0.011,26.6
2021-08-24T01:37:03,42.805,6.029,-0.016,0.0,0.002,100.0,102.0,100.0,13.4,1505.2,327.9,-0.8,1.8,2470.382,13.28,0.016,270.0
2021-08-24T01:40:03,42.805,6.029,0.016,0.023,0.024,99.0,102.0,100.0,13.4,1505.2,327.0,-0.8,1.8,2470.358,13.28,0.028,34.8
2021-08-24T01:43:03,42.805,6.029,-0.004,0.013,-0.005,100.0,99.0,100.0,13.4,1505.2,329.8,-0.8,1.8,2470.416,13.29,0.013,342.9
2021-08-24T01:46:03,42.805,6.029,0.022,0.023,0.053,99.0,101.0,100.0,13.4,1505.2,328.9,-0.7,1.8,2470.422,13.29,0.031,43.7
2021-08-24T01:49:03,42.805,6.029,0.021,0.011,-0.017,101.0,100.0,99.0,13.3,1505.2,327.1,-0.8,1.8,2470.385,13.29,0.023,62.4
2021-08-24T01:52:03,42.805,6.029,0.007,0.001,0.017,101.0,101.0,100.0,13.4,1505.2,325.7,-0.8,1.8,2470.389,13.29,0.007,81.9
2021-08-24T01:55:03,42.805,6.029,-0.008,0.02,-0.026,102.0,101.0,98.0,13.4,1505.2,328.1,-0.8,1.8,2470.407,13.28,0.021,338.2
2021-08-24T01:58:03,42.805,6.029,-0.009,0.0,-0.009,100.0,102.0,101.0,13.4,1505.2,330.4,-0.8,1.9,2470.38,13.28,0.009,270.0
2021-08-24T02:04:03,42.805,6.029,0.002,0.024,0.019,101.0,101.0,100.0,13.4,1505.2,329.1,-0.8,1.8,2470.419,13.28,0.024,4.8
2021-08-24T02:07:03,42.805,6.029,0.036,-0.004,-0.002,101.0,100.0,99.0,13.4,1505.2,326.5,-0.8,1.8,2470.408,13.28,0.036,96.3
2021-08-24T02:10:03,42.805,6.029,0.009,-0.026,-0.014,101.0,100.0,100.0,13.4,1505.2,329.2,-0.8,1.8,2470.444,13.28,0.027,160.9
2021-08-24T02:13:03,42.805,6.029,0.006,0.024,-0.009,103.0,101.0,99.0,13.4,1505.2,327.5,-0.8,1.8,2470.407,13.28,0.024,14.0
2021-08-24T02:16:03,42.805,6.029,0.0,0.004,-0.003,100.0,101.0,100.0,13.4,1505.2,325.8,-0.8,1.9,2470.406,13.28,0.004,0.0
2021-08-24T02:19:03,42.805,6.029,0.008,0.013,0.017,100.0,102.0,100.0,13.4,1505.2,330.0,-0.7,1.8,2470.426,13.28,0.015,31.6
2021-08-24T02:22:03,42.805,6.029,0.013,0.012,0.002,101.0,101.0,102.0,13.4,1505.2,328.4,-0.7,1.8,2470.448,13.28,0.017,47.3
2021-08-24T02:25:03,42.805,6.029,0.0,0.011,-0.013,101.0,99.0,100.0,13.4,1505.2,331.1,-0.7,1.9,2470.422,13.28,0.011,0.0
2021-08-24T02:28:03,42.805,6.029,-0.009,0.03,0.014,100.0,101.0,100.0,13.4,1505.2,329.1,-0.7,1.8,2470.399,13.28,0.031,343.3
2021-08-24T02:31:03,42.805,6.029,0.019,0.015,0.006,99.0,102.0,100.0,13.4,1505.2,327.3,-0.8,1.8,2470.397,13.28,0.024,51.7
2021-08-24T02:34:03,42.805,6.029,0.006,0.003,0.001,100.0,101.0,101.0,13.4,1505.2,327.5,-0.7,1.8,2470.432,13.28,0.006,63.4
2021-08-24T02:37:03,42.805,6.029,0.017,0.005,-0.005,101.0,101.0,100.0,13.4,1505.2,328.4,-0.8,1.8,2470.411,13.28,0.017,73.6
2021-08-24T02:40:03,42.805,6.029,0.009,-0.023,-0.027,100.0,102.0,100.0,13.4,1505.2,330.7,-0.7,1.8,2470.394,13.28,0.024,158.6
2021-08-24T02:43:03,42.805,6.029,0.003,0.016,0.024,101.0,102.0,100.0,13.3,1505.2,329.9,-0.8,1.8,2470.436,13.28,0.016,10.6
2021-08-24T02:46:03,42.805,6.029,0.029,0.006,0.017,101.0,102.0,99.0,13.4,1505.2,330.3,-0.8,1.8,2470.43,13.28,0.029,78.3
2021-08-24T02:49:03,42.805,6.029,0.01,-0.002,-0.013,100.0,101.0,100.0,13.3,1505.2,327.4,-0.7,1.8,2470.434,13.28,0.01,101.3
2021-08-24T02:52:03,42.805,6.029,-0.003,0.012,-0.015,101.0,100.0,100.0,13.4,1505.2,327.4,-0.7,1.8,2470.399,13.28,0.012,346.0
2021-08-24T02:55:03,42.805,6.029,0.008,0.009,0.007,99.0,101.0,101.0,13.4,1505.2,325.5,-0.8,1.8,2470.398,13.28,0.012,41.6
2021-08-24T02:58:03,42.805,6.029,0.013,0.006,0.01,101.0,101.0,99.0,13.4,1505.2,325.7,-0.7,1.8,2470.402,13.28,0.014,65.2
2021-08-24T03:04:03,42.805,6.029,0.0,0.017,0.034,100.0,102.0,100.0,13.4,1505.2,327.6,-0.8,1.8,2470.406,13.28,0.017,0.0
2021-08-24T03:07:03,42.805,6.029,0.005,0.0,-0.014,100.0,101.0,100.0,13.4,1505.2,328.6,-0.8,1.8,2470.383,13.28,0.005,90.0
2021-08-24T03:10:03,42.805,6.029,0.018,-0.013,0.0,101.0,101.0,101.0,13.4,1505.2,328.4,-0.7,1.8,2470.435,13.28,0.022,125.8
2021-08-24T03:13:03,42.805,6.029,-0.001,0.005,-0.012,101.0,101.0,101.0,13.3,1505.2,326.6,-0.8,1.8,2470.437,13.28,0.005,348.7
2021-08-24T03:16:03,42.805,6.029,0.034,-0.005,-0.003,100.0,101.0,100.0,13.4,1505.2,325.5,-0.8,1.8,2470.418,13.28,0.034,98.4
2021-08-24T03:19:03,42.805,6.029,0.001,-0.008,-0.02,99.0,101.0,101.0,13.4,1505.2,327.4,-0.7,1.8,2470.402,13.28,0.008,172.9
2021-08-24T03:22:03,42.805,6.029,0.017,-0.005,-0.023,102.0,99.0,101.0,13.4,1505.2,327.0,-0.7,1.8,2470.414,13.28,0.017,106.4
2021-08-24T03:25:03,42.805,6.029,-0.01,0.008,-0.015,100.0,101.0,100.0,13.3,1505.2,328.7,-0.8,1.8,2470.418,13.28,0.012,308.7
2021-08-24T03:28:03,42.805,6.029,0.008,0.007,-0.014,101.0,101.0,100.0,13.4,1505.2,328.3,-0.8,1.8,2470.433,13.28,0.01,48.8
2021-08-24T03:31:03,42.805,6.029,-0.007,0.0,-0.012,100.0,101.0,100.0,13.3,1505.2,325.4,-0.8,1.8,2470.398,13.28,0.007,270.0
2021-08-24T03:34:03,42.805,6.029,0.027,-0.001,0.028,100.0,101.0,101.0,13.4,1505.2,326.8,-0.8,1.8,2470.416,13.28,0.027,92.1
2021-08-24T03:37:03,42.805,6.029,0.002,-0.002,-0.002,101.0,102.0,100.0,13.4,1505.2,329.4,-0.7,1.8,2470.363,13.28,0.002,135.0
2021-08-24T03:40:03,42.805,6.029,-0.006,0.02,-0.022,102.0,103.0,100.0,13.4,1505.2,330.3,-0.7,1.8,2470.406,13.28,0.02,343.3
2021-08-24T03:43:03,42.805,6.029,0.0,0.007,0.0,101.0,101.0,99.0,13.4,1505.2,330.6,-0.8,1.8,2470.407,13.28,0.007,0.0
2021-08-24T03:46:03,42.805,6.029,0.006,0.009,0.034,101.0,101.0,100.0,13.3,1505.2,329.3,-0.8,1.8,2470.407,13.28,0.01,33.7
2021-08-24T03:49:03,42.805,6.029,0.027,0.0,0.011,101.0,101.0,100.0,13.4,1505.2,329.2,-0.8,1.8,2470.394,13.28,0.026,90.0
2021-08-24T03:52:03,42.805,6.029,0.019,0.01,0.007,100.0,102.0,100.0,13.4,1505.2,329.7,-0.7,1.8,2470.411,13.28,0.021,62.2
2021-08-24T03:55:03,42.805,6.029,0.003,0.009,-0.017,101.0,101.0,101.0,13.4,1505.2,331.1,-0.7,1.9,2470.386,13.28,0.009,18.4
2021-08-24T03:58:03,42.805,6.029,0.012,0.015,0.023,101.0,102.0,101.0,13.3,1505.2,326.0,-0.8,1.8,2470.458,13.28,0.019,38.7
2021-08-24T04:04:03,42.805,6.029,0.018,0.003,-0.009,100.0,100.0,102.0,13.4,1505.2,328.8,-0.7,1.8,2470.428,13.28,0.018,80.5
2021-08-24T04:07:03,42.805,6.029,0.035,0.014,0.011,101.0,101.0,100.0,13.4,1505.2,327.8,-0.7,1.8,2470.46,13.28,0.037,68.2
2021-08-24T04:10:03,42.805,6.029,-0.001,-0.012,-0.024,101.0,102.0,100.0,13.4,1505.2,325.8,-0.7,1.8,2470.448,13.28,0.012,184.8
2021-08-24T04:13:03,42.805,6.029,0.014,0.015,0.001,101.0,102.0,100.0,13.3,1505.2,330.4,-0.8,1.8,2470.451,13.28,0.02,43.0
2021-08-24T04:16:03,42.805,6.029,0.019,-0.004,0.018,100.0,101.0,100.0,13.4,1505.2,327.2,-0.7,1.8,2470.45,13.28,0.019,101.9
2021-08-24T04:19:03,42.805,6.029,0.021,-0.009,-0.015,101.0,101.0,101.0,13.4,1505.2,330.6,-0.8,1.8,2470.465,13.28,0.022,113.2
2021-08-24T04:22:03,42.805,6.029,0.017,-0.006,-0.001,100.0,102.0,100.0,13.4,1505.2,327.5,-0.8,1.8,2470.452,13.28,0.018,109.4
2021-08-24T04:25:03,42.805,6.029,0.005,0.006,0.01,101.0,101.0,101.0,13.4,1505.2,329.3,-0.7,1.8,2470.432,13.28,0.007,39.8
2021-08-24T04:28:03,42.805,6.029,0.009,0.004,0.016,102.0,102.0,100.0,13.3,1505.2,330.5,-0.8,1.8,2470.464,13.28,0.009,66.0
2021-08-24T04:31:03,42.805,6.029,0.018,0.007,0.021,102.0,102.0,100.0,13.3,1505.2,329.7,-0.8,1.8,2470.495,13.28,0.019,68.8
2021-08-24T04:34:03,42.805,6.029,0.012,0.006,-0.014,100.0,102.0,100.0,13.3,1505.2,327.5,-0.7,1.8,2470.476,13.28,0.013,63.4
2021-08-24T04:37:03,42.805,6.029,0.031,-0.002,-0.001,100.0,104.0,100.0,13.4,1505.2,326.4,-0.7,1.8,2470.465,13.28,0.031,93.7
2021-08-24T04:40:03,42.805,6.029,-0.005,-0.02,-0.003,102.0,102.0,100.0,13.4,1505.2,327.7,-0.7,1.8,2470.46,13.28,0.02,194.0
2021-08-24T04:43:03,42.805,6.029,-0.005,-0.001,-0.032,101.0,102.0,103.0,13.4,1505.2,329.4,-0.8,1.8,2470.502,13.28,0.005,258.7
2021-08-24T04:46:03,42.805,6.029,0.016,-0.008,0.006,101.0,101.0,100.0,13.4,1505.2,325.9,-0.7,1.8,2470.521,13.28,0.017,116.6
2021-08-24T04:49:03,42.805,6.029,0.021,0.005,0.011,102.0,101.0,100.0,13.3,1505.2,325.7,-0.7,1.8,2470.476,13.28,0.021,76.6
2021-08-24T04:52:03,42.805,6.029,0.027,0.012,0.049,101.0,102.0,101.0,13.4,1505.2,327.9,-0.7,1.8,2470.531,13.28,0.029,66.0
2021-08-24T04:55:03,42.805,6.029,0.019,-0.011,-0.013,102.0,101.0,100.0,13.4,1505.2,330.0,-0.8,1.8,2470.486,13.28,0.021,120.1
2021-08-24T04:58:03,42.805,6.029,0.03,0.0,0.016,102.0,102.0,99.0,13.4,1505.2,329.0,-0.8,1.9,2470.474,13.28,0.03,90.0
2021-08-24T05:04:03,42.805,6.029,0.013,0.012,-0.013,101.0,102.0,101.0,13.4,1505.2,325.7,-0.8,1.8,2470.571,13.28,0.017,47.3
2021-08-24T05:07:03,42.805,6.029,0.014,0.0,0.003,101.0,102.0,100.0,13.3,1505.2,328.2,-0.8,1.8,2470.53,13.28,0.014,90.0
2021-08-24T05:10:03,42.805,6.029,0.002,0.026,0.038,102.0,103.0,99.0,13.4,1505.2,329.1,-0.8,1.8,2470.521,13.28,0.026,4.4
2021-08-24T05:13:03,42.805,6.029,0.023,0.006,0.028,101.0,102.0,100.0,13.3,1505.2,325.0,-0.7,1.8,2470.559,13.28,0.023,75.4
2021-08-24T05:16:03,42.805,6.029,0.019,-0.012,0.006,102.0,104.0,100.0,13.3,1505.2,324.9,-0.8,1.8,2470.506,13.28,0.022,122.3
2021-08-24T05:19:03,42.805,6.029,0.015,0.023,0.02,100.0,103.0,101.0,13.4,1505.2,330.5,-0.7,1.8,2470.537,13.28,0.027,33.1
2021-08-24T05:22:03,42.805,6.029,0.028,0.003,0.025,102.0,103.0,101.0,13.4,1505.2,330.5,-0.8,1.8,2470.51,13.28,0.028,83.9
2021-08-24T05:25:03,42.805,6.029,0.023,0.0,0.025,101.0,103.0,101.0,13.4,1505.2,326.8,-0.7,1.8,2470.508,13.28,0.023,90.0
2021-08-24T05:28:03,42.805,6.029,0.013,0.008,0.013,102.0,104.0,101.0,13.4,1505.2,326.8,-0.8,1.8,2470.503,13.28,0.015,58.4
2021-08-24T05:31:03,42.805,6.029,0.005,0.0,-0.001,101.0,106.0,103.0,13.4,1505.2,330.5,-0.7,1.8,2470.538,13.28,0.005,90.0
2021-08-24T05:34:03,42.805,6.029,0.012,0.003,0.017,102.0,99.0,100.0,13.3,1505.2,327.3,-0.7,1.8,2470.513,13.28,0.012,76.0
2021-08-24T05:37:03,42.805,6.029,0.026,0.005,-0.005,102.0,102.0,101.0,13.4,1505.2,330.6,-0.7,1.8,2470.498,13.28,0.026,79.1
2021-08-24T05:40:03,42.805,6.029,0.012,-0.002,0.016,102.0,103.0,101.0,13.4,1505.2,330.8,-0.8,1.8,2470.52,13.28,0.012,99.5
2021-08-24T05:43:03,42.805,6.029,0.029,-0.011,-0.029,101.0,102.0,100.0,13.3,1505.2,330.3,-0.8,1.8,2470.554,13.28,0.031,110.8
2021-08-24T05:46:03,42.805,6.029,0.005,-0.007,-0.026,102.0,103.0,101.0,13.4,1505.2,328.7,-0.8,1.8,2470.515,13.28,0.008,144.5
2021-08-24T05:49:03,42.805,6.029,0.014,-0.011,0.004,101.0,102.0,101.0,13.4,1505.2,327.0,-0.8,1.8,2470.523,13.28,0.017,128.2
2021-08-24T05:52:03,42.805,6.029,0.007,0.009,0.035,101.0,102.0,100.0,13.4,1505.2,325.5,-0.8,1.8,2470.538,13.28,0.011,37.9
2021-08-24T05:55:03,42.805,6.029,0.015,-0.01,-0.001,101.0,103.0,100.0,13.4,1505.2,328.1,-0.7,1.8,2470.55,13.28,0.018,123.7
2021-08-24T05:58:03,42.805,6.029,0.017,0.0,0.042,102.0,101.0,100.0,13.3,1505.2,328.5,-0.8,1.8,2470.55,13.28,0.017,90.0
2021-08-24T06:04:03,42.805,6.029,0.027,0.001,0.03,101.0,102.0,105.0,13.4,1505.2,329.6,-0.8,1.8,2470.575,13.28,0.027,87.9
2021-08-24T06:07:03,42.805,6.029,0.024,0.008,0.018,101.0,102.0,102.0,13.4,1505.2,324.8,-0.8,1.8,2470.58,13.28,0.025,71.6
2021-08-24T06:10:03,42.805,6.029,0.011,-0.019,-0.033,102.0,101.0,100.0,13.4,1505.2,329.2,-0.7,1.9,2470.564,13.28,0.021,149.9
2021-08-24T06:13:03,42.805,6.029,0.011,-0.02,0.008,103.0,102.0,100.0,13.4,1505.2,329.1,-0.8,1.8,2470.578,13.28,0.022,151.2
2021-08-24T06:16:03,42.805,6.029,0.011,0.006,0.029,102.0,102.0,100.0,13.4,1505.2,330.0,-0.7,1.8,2470.609,13.28,0.012,61.4
2021-08-24T06:19:03,42.805,6.029,0.018,-0.024,0.006,101.0,102.0,100.0,13.4,1505.2,327.0,-0.8,1.8,2470.618,13.28,0.03,143.1
2021-08-24T06:22:03,42.805,6.029,0.026,0.0,-0.004,103.0,102.0,101.0,13.4,1505.2,327.9,-0.8,1.8,2470.554,13.28,0.026,90.0
2021-08-24T06:25:03,42.805,6.029,0.021,-0.007,0.021,102.0,101.0,100.0,13.4,1505.2,326.9,-0.7,1.8,2470.602,13.28,0.022,108.4
2021-08-24T06:28:03,42.805,6.029,0.025,-0.032,-0.031,101.0,102.0,100.0,13.4,1505.2,329.2,-0.8,1.8,2470.618,13.28,0.04,142.0
2021-08-24T06:31:03,42.805,6.029,0.056,0.001,0.022,103.0,101.0,100.0,13.3,1505.2,329.3,-0.7,1.9,2470.555,13.28,0.056,89.0
2021-08-24T06:34:03,42.805,6.029,0.035,-0.008,0.009,102.0,102.0,100.0,13.3,1505.2,329.5,-0.7,1.8,2470.596,13.28,0.035,102.9
2021-08-24T06:37:03,42.805,6.029,0.033,-0.017,-0.003,101.0,102.0,100.0,13.4,1505.2,326.9,-0.7,1.9,2470.557,13.28,0.037,117.3
2021-08-24T06:40:03,42.805,6.029,0.023,0.002,0.006,101.0,102.0,100.0,13.4,1505.2,327.6,-0.7,1.8,2470.584,13.28,0.023,85.0
2021-08-24T06:43:03,42.805,6.029,0.003,-0.008,-0.009,100.0,102.0,101.0,13.3,1505.2,327.7,-0.7,1.8,2470.581,13.28,0.008,159.4
2021-08-24T06:46:03,42.805,6.029,0.019,0.014,0.024,102.0,101.0,100.0,13.3,1505.2,328.6,-0.8,1.8,2470.612,13.28,0.023,53.6
2021-08-24T06:49:03,42.805,6.029,0.024,-0.016,-0.035,100.0,103.0,101.0,13.4,1505.2,328.6,-0.8,1.8,2470.585,13.28,0.028,123.7
2021-08-24T06:52:03,42.805,6.029,0.021,0.0,0.016,101.0,102.0,99.0,13.3,1505.2,328.5,-0.7,1.8,2470.621,13.28,0.021,90.0
2021-08-24T06:55:03,42.805,6.029,0.039,-0.007,-0.005,101.0,102.0,101.0,13.3,1505.2,328.6,-0.7,1.8,2470.607,13.28,0.039,100.2
2021-08-24T06:58:03,42.805,6.029,0.026,-0.011,-0.006,103.0,102.0,101.0,13.4,1505.2,325.5,-0.8,1.8,2470.579,13.28,0.028,112.9
2021-08-24T07:04:03,42.805,6.029,0.005,-0.005,-0.002,101.0,101.0,100.0,13.4,1505.2,325.6,-0.7,1.8,2470.625,13.28,0.007,135.0
2021-08-24T07:07:03,42.805,6.029,0.003,-0.019,-0.012,101.0,101.0,101.0,13.4,1505.2,328.7,-0.8,1.9,2470.561,13.28,0.019,171.0
2021-08-24T07:10:03,42.805,6.029,-0.006,-0.005,-0.03,102.0,101.0,100.0,13.4,1505.2,328.1,-0.8,1.8,2470.605,13.28,0.007,230.2
2021-08-24T07:13:03,42.805,6.029,-0.01,0.009,0.01,101.0,100.0,101.0,13.4,1505.2,329.1,-0.8,1.8,2470.594,13.28,0.013,312.0
2021-08-24T07:16:03,42.805,6.029,0.038,-0.005,-0.016,101.0,102.0,101.0,13.4,1505.2,324.7,-0.8,1.8,2470.622,13.28,0.038,97.5
2021-08-24T07:19:03,42.805,6.029,0.034,-0.01,0.009,101.0,101.0,100.0,13.4,1505.2,331.1,-0.8,1.9,2470.605,13.28,0.035,106.4
2021-08-24T07:22:03,42.805,6.029,0.012,-0.019,-0.024,99.0,102.0,101.0,13.4,1505.2,326.3,-0.8,1.8,2470.615,13.28,0.022,147.7
2021-08-24T07:25:03,42.805,6.029,0.002,0.01,0.022,99.0,103.0,101.0,13.4,1505.2,328.5,-0.8,1.8,2470.619,13.28,0.01,11.3
2021-08-24T07:28:03,42.805,6.029,0.017,0.0,0.003,101.0,101.0,100.0,13.4,1505.2,329.1,-0.7,1.8,2470.59,13.28,0.017,90.0
2021-08-24T07:31:03,42.805,6.029,-0.006,-0.011,-0.003,102.0,101.0,100.0,13.4,1505.2,326.3,-0.8,1.8,2470.577,13.28,0.012,208.6
2021-08-24T07:34:03,42.805,6.029,-0.029,0.036,0.047,102.0,100.0,100.0,13.4,1505.2,326.6,-0.7,1.9,2470.567,13.28,0.046,321.1
2021-08-24T07:37:03,42.805,6.029,0.015,0.0,-0.016,101.0,102.0,100.0,13.4,1505.2,325.4,-0.8,1.8,2470.592,13.28,0.015,90.0
2021-08-24T07:40:03,42.805,6.029,0.025,-0.02,-0.029,101.0,101.0,100.0,13.4,1505.2,330.2,-0.8,1.8,2470.574,13.28,0.032,128.7
2021-08-24T07:43:03,42.805,6.029,0.002,-0.014,-0.012,102.0,101.0,101.0,13.4,1505.2,329.7,-0.7,1.8,2470.601,13.28,0.014,171.9
2021-08-24T07:46:03,42.805,6.029,-0.009,-0.004,-0.019,99.0,103.0,101.0,13.3,1505.2,328.3,-0.8,1.8,2470.604,13.28,0.009,246.0
2021-08-24T07:49:03,42.805,6.029,0.011,0.0,-0.026,101.0,101.0,102.0,13.4,1505.2,325.0,-0.8,1.8,2470.61,13.28,0.011,90.0
2021-08-24T07:52:03,42.805,6.029,0.0,0.013,-0.011,101.0,101.0,100.0,13.4,1505.2,327.4,-0.8,1.8,2470.59,13.28,0.013,0.0
2021-08-24T07:55:03,42.805,6.029,0.007,-0.012,0.012,102.0,101.0,101.0,13.4,1505.2,328.2,-0.7,1.8,2470.57,13.28,0.013,149.7
2021-08-24T07:58:03,42.805,6.029,0.002,-0.024,-0.026,101.0,102.0,100.0,13.4,1505.2,331.3,-0.7,1.8,2470.584,13.28,0.024,175.2
2021-08-24T08:04:03,42.805,6.029,-0.001,0.006,-0.001,101.0,101.0,100.0,13.4,1505.2,328.0,-0.8,1.8,2470.633,13.28,0.006,350.5
2021-08-24T08:07:03,42.805,6.029,0.037,-0.005,0.013,101.0,101.0,101.0,13.3,1505.2,328.9,-0.7,1.8,2470.613,13.28,0.037,97.7
2021-08-24T08:10:03,42.805,6.029,0.04,-0.005,0.01,101.0,100.0,100.0,13.4,1505.2,328.0,-0.7,1.8,2470.622,13.28,0.04,97.1
2021-08-24T08:13:03,42.805,6.029,0.026,-0.029,-0.028,101.0,100.0,100.0,13.4,1505.2,329.8,-0.8,1.9,2470.626,13.28,0.038,138.1
2021-08-24T08:16:03,42.805,6.029,0.027,-0.006,0.003,100.0,101.0,100.0,13.3,1505.2,327.0,-0.8,1.8,2470.579,13.28,0.027,102.5
2021-08-24T08:19:03,42.805,6.029,0.014,0.01,0.024,102.0,100.0,100.0,13.4,1505.2,328.4,-0.8,1.8,2470.622,13.28,0.017,54.5
2021-08-24T08:22:03,42.805,6.029,0.001,-0.023,-0.014,101.0,100.0,100.0,13.4,1505.2,329.1,-0.8,1.9,2470.617,13.28,0.023,177.5
2021-08-24T08:25:03,42.805,6.029,0.016,-0.017,0.008,101.0,100.0,100.0,13.3,1505.2,326.9,-0.8,1.8,2470.611,13.28,0.023,136.7
2021-08-24T08:28:03,42.805,6.029,0.01,-0.018,-0.011,101.0,101.0,100.0,13.4,1505.2,328.1,-0.7,1.8,2470.593,13.28,0.02,150.9
2021-08-24T08:31:03,42.805,6.029,0.019,-0.005,-0.016,101.0,101.0,100.0,13.4,1505.2,325.6,-0.7,1.8,2470.582,13.28,0.019,104.7
2021-08-24T08:34:03,42.805,6.029,0.01,-0.011,-0.017,100.0,101.0,100.0,13.3,1505.2,327.4,-0.8,1.8,2470.617,13.28,0.014,137.7
2021-08-24T08:37:03,42.805,6.029,0.023,-0.002,0.007,101.0,101.0,100.0,13.4,1505.2,327.1,-0.8,1.8,2470.601,13.28,0.023,95.0
2021-08-24T08:40:03,42.805,6.029,0.009,-0.013,0.001,101.0,101.0,100.0,13.4,1505.2,327.9,-0.7,1.9,2470.606,13.28,0.015,145.3
2021-08-24T08:43:03,42.805,6.029,0.024,-0.021,-0.02,101.0,101.0,100.0,13.3,1505.2,327.1,-0.8,1.8,2470.637,13.28,0.031,131.2
2021-08-24T08:46:03,42.805,6.029,0.011,-0.003,-0.019,101.0,101.0,100.0,13.4,1505.2,327.8,-0.7,1.8,2470.618,13.28,0.011,105.3
2021-08-24T08:49:03,42.805,6.029,0.014,0.0,0.007,101.0,101.0,100.0,13.4,1505.2,327.6,-0.7,1.8,2470.56,13.28,0.014,90.0
2021-08-24T08:52:03,42.805,6.029,-0.006,-0.004,-0.025,101.0,101.0,100.0,13.3,1505.2,325.3,-0.8,1.8,2470.587,13.28,0.007,236.3
2021-08-24T08:55:03,42.805,6.029,-0.011,-0.009,-0.013,101.0,101.0,100.0,13.3,1505.2,326.7,-0.8,1.8,2470.6,13.28,0.014,230.7
2021-08-24T08:58:03,42.805,6.029,-0.001,-0.006,0.0,101.0,101.0,100.0,13.4,1505.2,326.0,-0.8,1.8,2470.583,13.28,0.006,189.5
2021-08-24T09:04:03,42.805,6.029,-0.002,0.015,0.01,100.0,101.0,100.0,13.4,1505.2,328.9,-0.7,1.8,2470.648,13.28,0.015,352.4
2021-08-24T09:07:03,42.805,6.029,0.017,-0.015,-0.022,100.0,101.0,101.0,13.4,1505.2,329.0,-0.8,1.8,2470.586,13.28,0.022,131.4
2021-08-24T09:10:03,42.805,6.029,0.023,-0.012,0.016,103.0,99.0,100.0,13.3,1505.2,326.5,-0.8,1.8,2470.544,13.28,0.025,117.6
2021-08-24T09:13:03,42.805,6.029,0.001,0.006,-0.006,101.0,101.0,100.0,13.4,1505.2,325.0,-0.7,1.8,2470.575,13.28,0.006,9.5
2021-08-24T09:16:03,42.805,6.029,-0.001,-0.023,-0.03,103.0,102.0,99.0,13.4,1505.2,329.5,-0.8,1.8,2470.543,13.28,0.023,182.5
2021-08-24T09:19:03,42.805,6.029,0.006,0.001,-0.015,102.0,102.0,100.0,13.4,1505.2,325.4,-0.8,1.8,2470.628,13.28,0.006,80.5
2021-08-24T09:22:03,42.805,6.029,0.012,-0.013,-0.046,101.0,101.0,101.0,13.3,1505.2,327.0,-0.7,1.8,2470.622,13.28,0.017,137.3
2021-08-24T09:25:03,42.805,6.029,0.018,-0.013,-0.008,102.0,101.0,100.0,13.3,1505.2,326.4,-0.7,1.8,2470.569,13.28,0.022,125.8
2021-08-24T09:28:03,42.805,6.029,0.0,-0.004,-0.004,101.0,101.0,100.0,13.3,1505.2,329.0,-0.8,1.8,2470.592,13.28,0.004,180.0
2021-08-24T09:31:03,42.805,6.029,0.012,-0.013,-0.008,102.0,100.0,101.0,13.4,1505.2,328.9,-0.8,1.8,2470.557,13.28,0.017,137.3
2021-08-24T09:34:03,42.805,6.029,0.01,-0.027,-0.033,101.0,102.0,100.0,13.3,1505.2,326.6,-0.8,1.8,2470.588,13.28,0.028,159.7
2021-08-24T09:37:03,42.805,6.029,0.01,-0.011,0.012,101.0,102.0,101.0,13.4,1505.2,327.6,-0.7,1.8,2470.54,13.28,0.014,137.7
2021-08-24T09:40:03,42.805,6.029,0.026,-0.012,0.008,101.0,101.0,100.0,13.3,1505.2,329.3,-0.7,1.8,2470.537,13.28,0.028,114.8
2021-08-24T09:43:03,42.805,6.029,0.023,-0.001,-0.02,102.0,100.0,99.0,13.3,1505.2,327.1,-0.8,1.8,2470.568,13.28,0.023,92.5
2021-08-24T09:46:03,42.805,6.029,-0.016,0.01,-0.021,100.0,101.0,101.0,13.4,1505.2,330.9,-0.8,1.8,2470.572,13.28,0.018,302.0
2021-08-24T09:49:03,42.805,6.029,-0.004,-0.01,-0.035,100.0,102.0,100.0,13.4,1505.2,326.9,-0.7,1.8,2470.581,13.28,0.01,201.8
2021-08-24T09:52:03,42.805,6.029,-0.001,0.011,0.005,100.0,101.0,100.0,13.4,1505.2,327.4,-0.7,1.8,2470.521,13.28,0.011,354.8
2021-08-24T09:55:03,42.805,6.029,0.015,-0.01,0.004,103.0,102.0,100.0,13.4,1505.2,329.3,-0.7,1.8,2470.52,13.28,0.018,123.7
2021-08-24T09:58:03,42.805,6.029,0.0,0.004,0.005,100.0,101.0,100.0,13.3,1505.2,330.6,-0.7,1.9,2470.543,13.28,0.004,0.0
2021-08-24T10:04:03,42.805,6.029,0.018,-0.011,-0.009,100.0,101.0,100.0,13.4,1505.2,325.3,-0.8,1.9,2470.579,13.28,0.021,121.4